NAKANO
         **** Don't distribute anyone except personal use only ****
                (C) Copyright 2009 OAA/ComputingSection
write mail from CFAD0::NAKANO on 2009-01-06 06:55:00(JST).
 


    C/2005 B1 (Christensen)

Epoch 2006 Mar. 6.0 TT = JDT 2453800.5  

T 2006 Feb. 23.57649 TT                                 Nakano

q   3.2049293            (2000.0)            P               Q

z  -0.0000851      Peri.  103.18369     +0.20809650     +0.94070055

 +/-0.0000004      Node   195.55603     -0.29248613     +0.32122548

e   1.0002729      Incl.   92.55116     +0.93335294     -0.10907181

From 1428 observations 2004 Mar. 18-2007 Jan. 20, mean residual 0".57.

   (1/a)org.= +0.000002, (1/a)fut.= +0.000227 (+/-0.000000), Q= 9.



NAKANO

         **** Don't distribute anyone except personal use only ****

                (C) Copyright 2007 OAA/ComputingSection

write mail from CFAD0::NAKANO on 2007-02-11 07:48:26(JST).

 



    C/2005 B1 (Christensen)

Epoch 2006 Mar. 6.0 TT = JDT 2453800.5  

T 2006 Feb. 23.57689 TT                                 Nakano

q   3.2049240            (2000.0)            P               Q

z  -0.0000891      Peri.  103.18392     +0.20809931     +0.94069905

 +/-0.0000007      Node   195.55621     -0.29248168     +0.32122890

e   1.0002857      Incl.   92.55133     +0.93335371     -0.10907468

From 825 observations 2004 Mar. 18-2006 June 14, mean residual 0".58.

   (1/a)org.= -0.000007, (1/a)fut.= +0.000221 (+/-0.000001), Q= 8.



NAKANO

         **** Don't distribute anyone except personal use only ****

                (C) Copyright 2006 OAA/ComputingSection

write mail from CFAD0::NAKANO on 2006-06-20 02:59:54(JST).





    C/2005 B1 (Christensen)

Epoch 2006 Mar. 6.0 TT = JDT 2453800.5  

T 2006 Feb. 23.57777 TT                                 Nakano

q   3.2049023            (2000.0)            P               Q

z  -0.0000903      Peri.  103.18448     +0.20810784     +0.94069669

 +/-0.0000010      Node   195.55631     -0.29247683     +0.32123293

e   1.0002894      Incl.   92.55142     +0.93335333     -0.10908319

From 690 observations 2004 Mar. 18-2005 Oct. 15, mean residual 0".57.

   (1/a)org.= -0.000008, (1/a)fut.= +0.000220 (+/-0.000001), Q= 8.



NAKANO

         **** Don't distribute anyone except personal use only ****

                (C) Copyright 2005 OAA/ComputingSection

write mail from CFAD0::NAKANO on 2005-11-03 23:39:18(JST).

 



    C/2005 B1 (Christensen)                                               

Epoch 2006 Mar. 6.0 TT = JDT 2453800.5  

T 2006 Feb. 23.57057 TT                                 Nakano

q   3.2049335            (2000.0)            P               Q

z  -0.0001053      Peri.  103.18321     +0.20808603     +0.94070081

 +/-0.0000026      Node   195.55646     -0.29248086     +0.32122810

e   1.0003374      Incl.   92.55159     +0.93335692     -0.10906185

From 486 observations 2004 Mar. 18-2005 May 31, mean residual 0".59.

   (1/a)org.= -0.000023, (1/a)fut.= +0.000205 (+/-0.000003), Q= 7.



NAKANO

         **** Don't distribute anyone except personal use only ****

                (C) Copyright 2005 OAA/ComputingSection

write mail from CFAD0::NAKANO on 2005-06-05 05:59:11(JST).





    C/2005 B1 (Christensen)                                               

Epoch 2006 Mar. 6.0 TT = JDT 2453800.5  

T 2006 Feb. 23.58232 TT                                 Nakano

q   3.2049104            (2000.0)            P               Q

z  -0.0000861      Peri.  103.18474     +0.20811039     +0.94069526

 +/-0.0000208      Node   195.55650     -0.29247015     +0.32123594

e   1.0002759      Incl.   92.55172     +0.93335485     -0.10908663

From 133 observations 2004 Mar. 18-2005 Mar. 1, mean residual 0".55.

   (1/a)org.= -0.000004, (1/a)fut.= +0.000224 (+/-0.000021), Q= 6.



NAKANO

         **** Don't distribute anyone except personal use only ****

                (C) Copyright 2005 OAA/ComputingSection

write mail from CFAD0::NAKANO on 2005-03-05 03:18:44(JST).

 



    C/2005 B1 (Christensen)                                               

Epoch 2006 Mar. 6.0 TT = JDT 2453800.5  

T 2006 Feb. 23.65885 TT                                 Nakano

q   3.2054504            (2000.0)            P               Q

z  -0.0000015      Peri.  103.18158     +0.20806797     +0.94070647

 +/-0.0000743      Node   195.55609     -0.29251864     +0.32122059

e   1.0000049      Incl.   92.54980     +0.93334911     -0.10903517

From 86 observations 2004 Mar. 18-2005 Feb. 2, mean residual 0".56.

   (1/a)org.= +0.000081, (1/a)fut.= +0.000308 (+/-0.000074), Q= 6.



NAKANO

         **** Don't distribute anyone except personal use only ****

                (C) Copyright 2005 OAA/ComputingSection

write mail from CFAD0::NAKANO on 2005-02-04 04:54:56(JST).

 

◎C/2005 B1の軌道と予報位置です  (From 天文ガイド3月号)



  月惑星研究所のクリステンセンは,カテリナ・スカイサーベイで2005年1月16

日に 68-cmシュミットを使用して,うしかい座を撮影した CCDフレーム上に17等

級の新彗星を発見しました.発見当時,彗星には,西南西に 10"ほどの尾が見ら

れました.カリフォルニアのヤングの 60-cm反射による観測では,発見同日に彗

星には5"のコマと西に広がった 25"の尾が見られたとのこと.クレットの1.06-m

反射でこの彗星を観測したティチとチカも,彗星は拡散し,西南西に尾が見られ

ることを報告しています.彗星の観測は,1月17日に我が国でも,那賀川の堀寿

夫氏と前野拓氏,上尾の門田健一氏によって行なわれ,計算された新たな軌道か

ら,彗星は,2004年3月にLINEARサーベイでおとめ座に発見されていた小惑星20

04 FS101と同定されました.なお,中央局で計算された初期軌道は,現実のもの

と少し異なり,初期軌道決定と同時にはこの同定を見つけられていません.私も,

1月17日の追跡観測が報告された時点で,中央局とほぼ同時に,新しい軌道を計

算しました.その軌道からの2004 FS101の観測のずれは,赤経方向に+0゚.60,赤

緯方向に+0゚.97と十分同定可能でした.しかし,そのとき,別の業務に忙しく,

小惑星の観測とのチェックを怠ってしまいました.なお,2004 FS101の CCD V光

度は20.3等級で,発見前の3月18日の観測がキットピ−クから,さらにLINEARサ

ーベイからは3月26日,計3夜の10個の観測が報告されていました.

  次の軌道は,2004年3月18日から2005年1月21日までに行なわれた71個の観測

から決定したもので,軌道改良に使用された最終観測の一群は,秦野の浅見敦夫

氏と久万の中村彰正氏によるもので,彼らの CCD全光度は,それぞれ,17.0等と

17.8等でした.                            [以上,天文ガイド3月号より]



    C/2005 B1 (Christensen)                                               

Epoch 2006 Mar. 6.0 TT = JDT 2453800.5  

T 2006 Feb. 23.48375 TT                                 Nakano

q   3.2045209            (2000.0)            P               Q

z  -0.0002154      Peri.  103.18304     +0.20807508     +0.94070118

 +/-0.0001059      Node   195.55691     -0.29245571     +0.32122824

e   1.0006903      Incl.   92.55319     +0.93336725     -0.10905829

From 71 observations 2004 Mar. 18-2005 Jan. 21, mean residual 0".63.

   (1/a)org.= -0.000133, (1/a)fut.= +0.000095 (+/-0.000106), Q= 6.



 

Date/        TT  R.A.(2000) Decl.     Delta   r     Daily motion  Mag.  Moon Age

              h    h  m       。  ,                      ,  / PA 。  m1      。

2005 Jan. 25 18  14 32.21  +20 53.4   4.622  4.837    14.0 /  21  16.7   78 1.00

          26 18  14 32.56  +21 06.5   4.602  4.831    14.1 /  20  16.7   68  .98

          27 18  14 32.90  +21 19.8   4.582  4.825    14.2 /  19  16.6   59  .95

          28 18  14 33.22  +21 33.2   4.562  4.818    14.3 /  18  16.6   50  .90

          29 18  14 33.54  +21 46.8   4.542  4.812    14.4 /  17  16.6   43  .84

          30 18  14 33.84  +22 00.6   4.522  4.805    14.5 /  16  16.6   37  .75

          31 18  14 34.14  +22 14.6   4.502  4.799    14.7 /  15  16.6   35  .66

     Feb.  1 18  14 34.42  +22 28.8   4.482  4.793    14.8 /  14  16.6   37  .56

           2 18  14 34.68  +22 43.1   4.463  4.786    14.9 /  14  16.5   43  .45

           3 18  14 34.94  +22 57.6   4.444  4.780    15.0 /  13  16.5   51  .34

           4 18  14 35.18  +23 12.2   4.424  4.773    15.2 /  12  16.5   61  .24

           5 18  14 35.41  +23 27.1   4.405  4.767    15.3 /  11  16.5   73  .15

           6 18  14 35.62  +23 42.1   4.386  4.761    15.4 /  10  16.5   85  .07

           7 18  14 35.82  +23 57.3   4.368  4.754    15.6 /   9  16.5   97  .02

           8 18  14 36.01  +24 12.6   4.349  4.748    15.7 /   9  16.5  109  .00

           9 18  14 36.18  +24 28.1   4.331  4.742    15.8 /   8  16.4  120  .01

          10 18  14 36.34  +24 43.8   4.312  4.735    16.0 /   7  16.4  130  .05

          11 18  14 36.48  +24 59.7   4.294  4.729    16.1 /   6  16.4  137  .11

          12 18  14 36.61  +25 15.6   4.276  4.722    16.2 /   5  16.4  141  .19

          13 18  14 36.73  +25 31.8   4.259  4.716    16.4 /   5  16.4  141  .28

          14 18  14 36.82  +25 48.1   4.241  4.710    16.5 /   4  16.4  137  .37

          15 18  14 36.91  +26 04.5   4.224  4.703    16.6 /   3  16.4  131  .47

          16 18  14 36.97  +26 21.1   4.207  4.697    16.7 /   2  16.3  124  .57

          17 18  14 37.03  +26 37.9   4.190  4.691    16.9 /   2  16.3  115  .66

          18 18  14 37.06  +26 54.7   4.173  4.684    17.0 /   1  16.3  106  .75

          19 18  14 37.08  +27 11.7   4.157  4.678    17.1 /   0  16.3   97  .83

          20 18  14 37.08  +27 28.9   4.141  4.672    17.3 / 359  16.3   88  .89

          21 18  14 37.07  +27 46.1   4.125  4.666    17.4 / 359  16.3   79  .94

          22 18  14 37.04  +28 03.5   4.109  4.659    17.5 / 358  16.3   70  .98

          23 18  14 36.99  +28 21.0   4.093  4.653    17.6 / 357  16.2   62 1.00

          24 18  14 36.93  +28 38.6   4.078  4.647    17.8 / 356  16.2   54 1.00

          25 18  14 36.84  +28 56.3   4.063  4.640    17.9 / 356  16.2   48  .98

          26 18  14 36.74  +29 14.2   4.048  4.634    18.0 / 355  16.2   43  .94

          27 18  14 36.62  +29 32.1   4.034  4.628    18.1 / 354  16.2   42  .88

          28 18  14 36.49  +29 50.1   4.019  4.622    18.2 / 354  16.2   44  .80

     Mar.  1 18  14 36.33  +30 08.2   4.005  4.615    18.3 / 353  16.2   49  .71

NAKANO

         **** Don't distribute anyone except personal use only ****

                (C) Copyright 2005 OAA/ComputingSection

write mail from CFAD0::NAKANO on 2005-01-24 23:33:04(JST).

 



◎C/2005 B1の軌道と予報位置です



 1月17日の観測が,那賀川の堀寿夫氏と前野拓氏,上尾の門田健一氏から

報告されました.彼らの CCD全光度は,それぞれ,17.0等と17.9等でした.

軌道は,MPEC-B13とちょっと違います.



    C/2005 B1 (Christensen)                                               

T 2006 Feb. 16.06521 TT                                 Nakano

q   3.5354714            (2000.0)            P               Q

